Skip Page Navigation
NASA JPL Caltech
NASA Logo - Jet Propulsion Laboratory + View the NASA Portal
+ Near-Earth Object (NEO) Program
Search JPL
JPL Home Earth Solar System Stars & Galaxies Technology
JPL Solar System Dynamics
BODIES ORBITS EPHEMERIDES TOOLS PHYSICAL DATA DISCOVERY FAQ SITE MAP
JPL Small-Body Database Browser
Search: [ help ]  
11174 Carandrews (1998 FR67)
Classification: Main-belt Asteroid          SPK-ID: 2011174
Ephemeris | Orbit Diagram | Orbital Elements | Physical Parameters | Discovery Circumstances | Close-Approach Data ]

[ show orbit diagram ]
Orbital Elements at Epoch 2457000.5 (2014-Dec-09.0) TDB
Reference: JPL 15 (heliocentric ecliptic J2000)
 Element Value Uncertainty (1-sigma)   Units 
e .093810367244959 4.869e-08  
a 2.211338428780728 1.3681e-08 AU
q 2.003891958673917 1.1056e-07 AU
i 3.062185165122504 5.2458e-06 deg
node 86.92390058808427 0.00010905 deg
peri 179.212610448693 0.00011538 deg
M 323.5407445716679 4.178e-05 deg
tp 2457122.142837208725
(2015-Apr-09.64283721)
0.00013979 JED
period 1201.105751630655
3.29
1.1146e-05
3.052e-08
d
yr
n .2997238165842215 2.7814e-09 deg/d
Q 2.418784898887539 1.4964e-08 AU
  Orbit Determination Parameters
   # obs. used (total)      976  
   data-arc span      14095 days (38.59 yr)  
   first obs. used      1976-10-22  
   last obs. used      2015-05-26  
   planetary ephem.      DE431  
   SB-pert. ephem.      SB431-BIG16  
   condition code      0  
   fit RMS      .51513  
   data source      ORB  
   producer      Otto Matic  
   solution date      2015-Jun-04 16:11:01  

Additional Information
 Earth MOID = .989479 AU 
 T_jup = 3.649 
[ show covariance matrix ]

Ephemeris | Orbit Diagram | Orbital Elements | Physical Parameters | Discovery Circumstances | Close-Approach Data ]

Physical Parameter Table
Parameter Symbol Value Units Sigma Reference Notes
absolute magnitude H 14.6 mag n/a MPO253443  

11174 Carandrews           Discovered 1998 Mar. 20 by the Lincoln Laboratory Near-Earth Asteroid Research Team at Socorro.
Carolyn Marie Andrews (b. 1984) is a finalist in the 2002 Intel International Science and Engineering Fair for her engineering project. She attends the Lake Brantley High School, Longwood, Florida, U.S.A.
NOTE: some special characters may not display properly (any characters within {} are an attempt to place the proper accent above a character)
Reference: 20020724/MPCPages.arcLast Updated: 2003-10-02

[ show close-approach data ]
Alternate Designations
 1998 FR67 = 1976 UQ12 = 1976 WL 
Ephemeris | Orbit Diagram | Orbital Elements | Physical Parameters | Discovery Circumstances | Close-Approach Data ]
ABOUT SSD CREDITS/AWARDS PRIVACY/COPYRIGHT GLOSSARY LINKS
FirstGov 2015-Jul-04 10:42 UT
(server date/time)  
NASA Home Page
Site Manager:   Ryan S. Park
Webmaster  Alan B. Chamberlin